Simultaneous Nadir Overpasses (SNOs) Predictions

Prediction of SNOs between NOAA-19 and TERRA Satellite Orbit:

Table of predicted SNOs for the next 14.0 days since TLE Epoch: 8/24/2013
Index Date (NOAA-19) Time (NOAA-19) Lat,Lon (NOAA-19) SZA (NOAA-19 ) Date (TERRA) Time (TERRA) Lat,Lon (TERRA) SZA (TERRA ) Distance(km) Time Diff (sec)
1 08/25/2013 16:06:27 -70.27, 117.75 120.38 08/25/2013 16:07:37 -70.16, 119.03 120.49 49.75 70
2 08/25/2013 16:57:20 69.63, -74.04 58.99 08/25/2013 16:57:12 69.62, -74.08 58.98 2.02 8
3 08/25/2013 17:48:03 -68.78, 94.44 121.86 08/25/2013 17:46:55 -68.79, 92.47 121.84 79.38 68
4 08/27/2013 20:50:44 -70.36, 46.55 119.52 08/27/2013 20:51:53 -70.26, 48.10 119.62 59.07 69
5 08/27/2013 21:41:36 69.64,-145.11 59.77 08/27/2013 21:41:29 69.66,-145.10 59.79 2.15 7
6 08/27/2013 22:32:20 -68.87, 23.26 120.99 08/27/2013 22:31:11 -68.89, 21.52 120.98 69.85 69
7 08/30/2013 01:35:01 -70.46, -24.66 118.64 08/30/2013 01:36:09 -70.35, -22.85 118.76 68.36 68
8 08/30/2013 02:25:52 69.66, 143.81 60.57 08/30/2013 02:25:47 69.63, 143.79 60.54 3.12 5
9 08/30/2013 03:16:36 -68.92, -47.85 120.16 08/30/2013 03:15:27 -68.98, -49.45 120.11 64.09 69
10 09/01/2013 06:19:17 -70.50, -95.78 117.80 09/01/2013 06:20:25 -70.42, -93.82 117.89 73.57 68
11 09/01/2013 07:10:07 69.63, 72.80 61.34 09/01/2013 07:10:04 69.65, 72.74 61.35 3.20 3
12 09/01/2013 08:00:53 -69.02,-119.04 119.27 09/01/2013 07:59:43 -69.05,-120.43 119.24 55.21 70
13 09/03/2013 11:03:34 -70.61,-167.00 116.90 09/03/2013 11:04:41 -70.48,-164.81 117.02 82.51 67
14 09/03/2013 11:54:23 69.66, 1.71 62.17 09/03/2013 11:54:21 69.65, 1.67 62.16 1.96 2
15 09/03/2013 12:45:09 -69.07, 169.84 118.41 09/03/2013 12:43:58 -69.16, 168.65 118.33 48.22 71
16 09/05/2013 15:47:50 -70.66, 121.86 116.03 09/05/2013 15:48:57 -70.53, 124.19 116.16 87.34 67
17 09/05/2013 16:38:39 69.70, -69.39 63.02 09/05/2013 16:38:37 69.70, -69.34 63.02 1.98 2




NCC Satellite Simultaneous Nadir Overpasses (SNOs) Prediction Service
